User: anonymous   Login
Location: Sperry Observatory
(40.6664°N, 74.3236°W)
Time: 16:41:30
(UTC-04:00)
Language:

FO-29 - Orbit

View from above orbital plane
View from above orbital plane
View from above satellite
View from above satellite

Ground track
Ground track

The orbit data is extracted from the following two-line orbital elements,

1 24278U 96046B   17119.73095348 -.00000011 +00000-0 +22286-4 0  9993
2 24278 098.5709 009.4230 0351346 102.9104 261.1517 13.53075759022327
Epoch (UTC): 29 April 2017 17:32:34
Eccentricity: 0.0351346
inclination: 98.5709°
perigee height: 799 km
apogee height: 1322 km
right ascension of ascending node: 9.4230°
argument of perigee: 102.9104°
revolutions per day: 13.53075759
mean anomaly at epoch: 261.1517°
orbit number at epoch: 2232

The dashed part of the orbit path shows where the satellite is in the earth's shadow,  

DLR